This demonstration page uses our WeatherBlox Daily Observations layout. Learn more.

Left ArrowRight Arrow

47.50024, -111.30081

Hourly Observations for July 20, 2020

Temp ( °F °C ) Dew Point ( °F °C ) Humidity (%) Winds ( mph kmh ) Pressure ( in mb ) Visibility ( mi km ) Precip ( " mm )
12:53 am 00:53 Partly Cloudy 60 15.6 48 8.9 65 65 ESE 8 13 30.01 1016 10 16 0.00 0.00
1:53 am 01:53 Cloudy 59 15 48 8.9 67 67 W 9 15 30.02 1017 10 16 0.00 0.00
2:53 am 02:53 Mostly Cloudy 59 15 49 9.4 69 69 NNW 14 22 30.06 1018 10 16 0.00 0.00
3:53 am 03:53 Mostly Clear 55 12.8 49 9.4 80 80 NNW 13 20 30.07 1018 10 16 0.00 0.00
4:53 am 04:53 Cloudy 54 12.2 49 9.4 83 83 NNW 3 6 30.09 1019 10 16 0.00 0.00
5:53 am 05:53 Cloudy 55 12.8 50 10 83 83 Calm 30.10 1019 10 16 0.00 0.00
6:53 am 06:53 Mostly Cloudy 54 12.2 50 10 87 87 SW 7 11 30.11 1020 10 16 0.00 0.00
7:53 am 07:53 Cloudy 56 13.3 50 10 81 81 W 7 11 30.14 1021 10 16 0.00 0.00
8:53 am 08:53 Cloudy 58 14.4 50 10 75 75 Calm 30.14 1021 10 16 0.00 0.00
9:28 am 09:28 Cloudy 59 15 50 10 72 72 WSW 5 7 30.10 1019 10 16 0.00 0.00
9:53 am 09:53 Cloudy 61 16.1 50 10 67 67 Calm 30.14 1021 10 16 0.00 0.00
10:12 am 10:12 Mostly Cloudy 65 18.3 51 10.6 61 61 VRB 5 7 30.05 1018 10 16 0.00 0.00
10:53 am 10:53 Mostly Sunny 66 18.9 50 10 56 56 undefined N/A 30.14 1021 10 16 0.00 0.00
11:53 am 11:53 Sunny 68 20 50 10 53 53 Calm 30.13 1020 10 16 0.00 0.00
12:53 pm 12:53 Partly Cloudy 71 21.7 49 9.4 46 46 VRB 5 7 30.11 1020 10 16 0.00 0.00
1:53 pm 13:53 Partly Cloudy 74 23.3 48 8.9 40 40 VRB 3 6 30.09 1019 10 16 0.00 0.00
2:53 pm 14:53 Mostly Sunny 76 24.4 48 8.9 37 37 NE 6 9 30.06 1018 10 16 0.00 0.00
3:53 pm 15:53 Partly Cloudy 76 24.4 47 8.3 36 36 VRB 7 11 30.06 1018 10 16 0.00 0.00
4:53 pm 16:53 Mostly Sunny 77 25 47 8.3 35 35 ENE 8 13 30.04 1017 10 16 0.00 0.00
5:53 pm 17:53 Sunny 77 25 47 8.3 35 35 ENE 6 9 30.02 1017 10 16 0.00 0.00
6:53 pm 18:53 Sunny 76 24.4 45 7.2 33 33 VRB 7 11 30.02 1017 10 16 0.00 0.00
7:53 pm 19:53 Sunny 73 22.8 46 7.8 38 38 ENE 6 9 30.02 1017 10 16 0.00 0.00
8:53 pm 20:53 Sunny 69 20.6 45 7.2 42 42 E 7 11 30.03 1017 10 16 0.00 0.00
9:53 pm 21:53 Clear 64 17.8 45 7.2 50 50 E 6 9 30.04 1017 10 16 0.00 0.00
10:53 pm 22:53 Clear 63 17.2 46 7.8 54 54 E 8 13 30.04 1017 10 16 0.00 0.00
11:53 pm 23:53 Clear 62 16.7 46 7.8 56 56 SE 8 13 30.02 1017 10 16 0.00 0.00

Powered by AerisWeather